"Period start","avg(HW err(1)/warn(2) (#))","avg(Visibility (m))","avg(Weather code (#))","avg(Precip intensity (mm/h))","min(HW err(1)/warn(2) (#))","max(HW err(1)/warn(2) (#))","std(HW err(1)/warn(2) (#))","med(HW err(1)/warn(2) (#))","min(Visibility (m))","max(Visibility (m))","std(Visibility (m))","med(Visibility (m))","min(Weather code (#))","max(Weather code (#))","std(Weather code (#))","med(Weather code (#))","min(Precip intensity (mm/h))","max(Precip intensity (mm/h))","std(Precip intensity (mm/h))","med(Precip intensity (mm/h))"
2014-09-01 00:00:00,2,49200,0,0.00,2,2,0,2,45637,50000,1499,50000,0,0,0,0,0.00,0.00,0.00,0.00
2014-09-01 00:10:00,2,46541,0,0.00,2,2,0,2,39039,50000,4190,48402,0,0,0,0,0.00,0.00,0.00,0.00
2014-09-01 00:20:00,2,47756,0,0.00,2,2,0,2,38381,50000,3391,49106,0,0,0,0,0.00,0.00,0.00,0.00
2014-09-01 00:30:00,2,46431,0,0.00,2,2,0,2,40145,50000,3176,46346,0,0,0,0,0.00,0.00,0.00,0.00
2014-09-01 00:40:00,2,42092,0,0.00,2,2,0,2,31819,50000,5411,42209,0,0,0,0,0.00,0.00,0.00,0.00
2014-09-01 00:50:00,2,45497,0,0.00,2,2,0,2,37661,50000,4672,46670,0,0,0,0,0.00,0.00,0.00,0.00
2014-09-01 01:00:00,2,49260,0,0.00,2,2,0,2,44549,50000,1675,50000,0,0,0,0,0.00,0.00,0.00,0.00
2014-09-01 01:10:00,2,48948,0,0.00,2,2,0,2,44684,50000,1711,50000,0,0,0,0,0.00,0.00,0.00,0.00
2014-09-01 01:20:00,2,47792,0,0.00,2,2,0,2,40809,50000,3173,50000,0,0,0,0,0.00,0.00,0.00,0.00
2014-09-01 01:30:00,2,48792,0,0.00,2,2,0,2,45265,50000,1796,50000,0,0,0,0,0.00,0.00,0.00,0.00
2014-09-01 01:40:00,2,47139,0,0.00,2,2,0,2,36825,50000,4296,49878,0,0,0,0,0.00,0.00,0.00,0.00
2014-09-01 01:50:00,2,40471,0,0.00,2,2,0,2,26169,50000,7995,42360,0,0,0,0,0.00,0.00,0.00,0.00
2014-09-01 02:00:00,2,46559,0,0.00,2,2,0,2,35521,50000,4935,48756,0,0,0,0,0.00,0.00,0.00,0.00
2014-09-01 02:10:00,2,48571,0,0.00,2,2,0,2,40314,50000,3029,50000,0,0,0,0,0.00,0.00,0.00,0.00
2014-09-01 02:20:00,2,49689,0,0.00,2,2,0,2,48103,50000,581,50000,0,0,0,0,0.00,0.00,0.00,0.00
2014-09-01 02:30:00,2,49318,0,0.00,2,2,0,2,45302,50000,1481,50000,0,0,0,0,0.00,0.00,0.00,0.00
2014-09-01 02:40:00,2,48719,0,0.00,2,2,0,2,43605,50000,1992,50000,0,0,0,0,0.00,0.00,0.00,0.00
2014-09-01 02:50:00,2,48078,0,0.00,2,2,0,2,44099,50000,2407,50000,0,0,0,0,0.00,0.00,0.00,0.00
2014-09-01 03:00:00,2,47812,0,0.00,2,2,0,2,42250,50000,2517,48988,0,0,0,0,0.00,0.00,0.00,0.00
2014-09-01 03:10:00,2,42664,0,0.00,2,2,0,2,30643,50000,6459,43352,0,0,0,0,0.00,0.00,0.00,0.00
2014-09-01 03:20:00,2,47867,0,0.00,0,2,1,2,39386,50000,3442,50000,0,0,0,0,0.00,0.00,0.00,0.00
2014-09-01 03:30:00,2,43406,0,0.00,0,2,1,2,27410,50000,7769,45156,0,0,0,0,0.00,0.00,0.00,0.00
2014-09-01 03:40:00,1,39658,0,0.00,0,2,1,2,30506,50000,6364,40468,0,0,0,0,0.00,0.00,0.00,0.00
2014-09-01 03:50:00,0,48970,0,0.00,0,0,0,0,45380,50000,1562,49954,0,0,0,0,0.00,0.00,0.00,0.00
2014-09-01 04:00:00,2,48450,0,0.00,0,2,1,2,42374,50000,2442,50000,0,0,0,0,0.00,0.00,0.00,0.00
2014-09-01 04:10:00,2,48793,0,0.00,2,2,0,2,44905,50000,1912,50000,0,0,0,0,0.00,0.00,0.00,0.00
2014-09-01 04:20:00,2,45436,0,0.00,2,2,0,2,39606,50000,2940,45296,0,0,0,0,0.00,0.00,0.00,0.00
2014-09-01 04:30:00,2,43887,0,0.00,2,2,0,2,36785,50000,4344,44623,0,0,0,0,0.00,0.00,0.00,0.00
2014-09-01 04:40:00,2,44423,0,0.00,2,2,0,2,32524,50000,6153,47530,0,0,0,0,0.00,0.00,0.00,0.00
2014-09-01 04:50:00,2,47696,0,0.00,2,2,0,2,35427,50000,4340,49635,0,0,0,0,0.00,0.00,0.00,0.00
2014-09-01 05:00:00,2,49802,0,0.00,2,2,0,2,48107,50000,566,50000,0,0,0,0,0.00,0.00,0.00,0.00
2014-09-01 05:10:00,2,49720,0,0.00,2,2,0,2,47760,50000,675,50000,0,0,0,0,0.00,0.00,0.00,0.00
2014-09-01 05:20:00,2,49039,0,0.00,2,2,0,2,43336,50000,1988,50000,0,0,0,0,0.00,0.00,0.00,0.00
2014-09-01 05:30:00,2,49952,0,0.00,2,2,0,2,49515,50000,146,50000,0,0,0,0,0.00,0.00,0.00,0.00
2014-09-01 05:40:00,2,48329,0,0.00,2,2,0,2,42817,50000,2728,49755,0,0,0,0,0.00,0.00,0.00,0.00
2014-09-01 05:50:00,2,49712,0,0.00,0,2,1,2,47123,50000,863,50000,0,0,0,0,0.00,0.00,0.00,0.00
2014-09-01 06:00:00,0,48414,0,0.00,0,0,0,0,40516,50000,2914,50000,0,0,0,0,0.00,0.00,0.00,0.00
2014-09-01 06:10:00,1,49059,0,0.00,0,2,1,1,44103,50000,1951,50000,0,0,0,0,0.00,0.00,0.00,0.00
2014-09-01 06:20:00,2,49002,0,0.00,2,2,0,2,42068,50000,2391,50000,0,0,0,0,0.00,0.00,0.00,0.00
2014-09-01 06:30:00,2,49963,0,0.00,2,2,0,2,49628,50000,112,50000,0,0,0,0,0.00,0.00,0.00,0.00
2014-09-01 06:40:00,2,49636,0,0.00,2,2,0,2,46552,50000,1030,50000,0,0,0,0,0.00,0.00,0.00,0.00
2014-09-01 06:50:00,2,50000,0,0.00,2,2,0,2,50000,50000,0,50000,0,0,0,0,0.00,0.00,0.00,0.00
2014-09-01 07:00:00,2,49740,0,0.00,2,2,0,2,47399,50000,780,50000,0,0,0,0,0.00,0.00,0.00,0.00
2014-09-01 07:10:00,2,50000,0,0.00,2,2,0,2,50000,50000,0,50000,0,0,0,0,0.00,0.00,0.00,0.00
2014-09-01 07:20:00,2,50000,0,0.00,2,2,0,2,50000,50000,0,50000,0,0,0,0,0.00,0.00,0.00,0.00
2014-09-01 07:30:00,2,49841,0,0.00,2,2,0,2,48544,50000,434,50000,0,0,0,0,0.00,0.00,0.00,0.00
2014-09-01 07:40:00,2,49323,0,0.00,2,2,0,2,46479,50000,1058,49814,0,0,0,0,0.00,0.00,0.00,0.00
2014-09-01 07:50:00,2,50000,0,0.00,2,2,0,2,50000,50000,0,50000,0,0,0,0,0.00,0.00,0.00,0.00
2014-09-01 08:00:00,2,49488,0,0.00,2,2,0,2,47372,50000,809,50000,0,0,0,0,0.00,0.00,0.00,0.00
2014-09-01 08:10:00,2,49789,0,0.00,2,2,0,2,47886,50000,634,50000,0,0,0,0,0.00,0.00,0.00,0.00
2014-09-01 08:20:00,2,49147,0,0.00,2,2,0,2,45308,50000,1716,50000,0,0,0,0,0.00,0.00,0.00,0.00
2014-09-01 08:30:00,2,50000,0,0.00,2,2,0,2,50000,50000,0,50000,0,0,0,0,0.00,0.00,0.00,0.00
2014-09-01 08:40:00,2,49686,0,0.00,2,2,0,2,46856,50000,943,50000,0,0,0,0,0.00,0.00,0.00,0.00
2014-09-01 08:50:00,2,49547,0,0.00,2,2,0,2,47477,50000,832,50000,0,0,0,0,0.00,0.00,0.00,0.00
2014-09-01 09:00:00,2,49897,0,0.00,2,2,0,2,48966,50000,310,50000,0,0,0,0,0.00,0.00,0.00,0.00
2014-09-01 09:10:00,2,49787,0,0.00,2,2,0,2,48780,50000,432,50000,0,0,0,0,0.00,0.00,0.00,0.00
2014-09-01 09:20:00,2,50000,0,0.00,2,2,0,2,50000,50000,0,50000,0,0,0,0,0.00,0.00,0.00,0.00
2014-09-01 09:30:00,2,49999,0,0.00,2,2,0,2,49990,50000,3,50000,0,0,0,0,0.00,0.00,0.00,0.00
2014-09-01 09:40:00,2,49410,0,0.00,2,2,0,2,46491,50000,1082,50000,0,0,0,0,0.00,0.00,0.00,0.00
2014-09-01 09:50:00,2,50000,0,0.00,2,2,0,2,50000,50000,0,50000,0,0,0,0,0.00,0.00,0.00,0.00
2014-09-01 10:00:00,2,50000,0,0.00,2,2,0,2,50000,50000,0,50000,0,0,0,0,0.00,0.00,0.00,0.00
2014-09-01 10:10:00,2,50000,0,0.00,2,2,0,2,50000,50000,0,50000,0,0,0,0,0.00,0.00,0.00,0.00
2014-09-01 10:20:00,2,50000,0,0.00,2,2,0,2,50000,50000,0,50000,0,0,0,0,0.00,0.00,0.00,0.00
2014-09-01 10:30:00,2,50000,0,0.00,2,2,0,2,50000,50000,0,50000,0,0,0,0,0.00,0.00,0.00,0.00
2014-09-01 10:40:00,2,50000,0,0.00,2,2,0,2,50000,50000,0,50000,0,0,0,0,0.00,0.00,0.00,0.00
2014-09-01 10:50:00,2,50000,0,0.00,2,2,0,2,50000,50000,0,50000,0,0,0,0,0.00,0.00,0.00,0.00
2014-09-01 11:00:00,2,50000,0,0.00,2,2,0,2,50000,50000,0,50000,0,0,0,0,0.00,0.00,0.00,0.00
2014-09-01 11:10:00,2,50000,0,0.00,2,2,0,2,50000,50000,0,50000,0,0,0,0,0.00,0.00,0.00,0.00
2014-09-01 11:20:00,2,50000,0,0.00,2,2,0,2,50000,50000,0,50000,0,0,0,0,0.00,0.00,0.00,0.00
2014-09-01 11:30:00,2,50000,0,0.00,2,2,0,2,50000,50000,0,50000,0,0,0,0,0.00,0.00,0.00,0.00
2014-09-01 11:40:00,2,50000,0,0.00,2,2,0,2,50000,50000,0,50000,0,0,0,0,0.00,0.00,0.00,0.00
2014-09-01 11:50:00,2,50000,0,0.00,2,2,0,2,50000,50000,0,50000,0,0,0,0,0.00,0.00,0.00,0.00
2014-09-01 12:00:00,2,50000,0,0.00,2,2,0,2,50000,50000,0,50000,0,0,0,0,0.00,0.00,0.00,0.00
2014-09-01 12:10:00,2,50000,0,0.00,2,2,0,2,50000,50000,0,50000,0,0,0,0,0.00,0.00,0.00,0.00
2014-09-01 12:20:00,2,50000,0,0.00,2,2,0,2,50000,50000,0,50000,0,0,0,0,0.00,0.00,0.00,0.00
2014-09-01 12:30:00,2,49409,0,0.00,2,2,0,2,46010,50000,1269,50000,0,0,0,0,0.00,0.00,0.00,0.00
2014-09-01 12:40:00,2,50000,0,0.00,2,2,0,2,50000,50000,0,50000,0,0,0,0,0.00,0.00,0.00,0.00
2014-09-01 12:50:00,2,50000,0,0.00,2,2,0,2,50000,50000,0,50000,0,0,0,0,0.00,0.00,0.00,0.00
2014-09-01 13:00:00,2,49911,0,0.00,2,2,0,2,49113,50000,266,50000,0,0,0,0,0.00,0.00,0.00,0.00
2014-09-01 13:10:00,2,50000,0,0.00,2,2,0,2,50000,50000,0,50000,0,0,0,0,0.00,0.00,0.00,0.00
2014-09-01 13:20:00,2,50000,0,0.00,2,2,0,2,50000,50000,0,50000,0,0,0,0,0.00,0.00,0.00,0.00
2014-09-01 13:30:00,2,50000,0,0.00,2,2,0,2,50000,50000,0,50000,0,0,0,0,0.00,0.00,0.00,0.00
2014-09-01 13:40:00,2,49733,0,0.00,2,2,0,2,47477,50000,753,50000,0,0,0,0,0.00,0.00,0.00,0.00
2014-09-01 13:50:00,2,50000,0,0.00,2,2,0,2,50000,50000,0,50000,0,0,0,0,0.00,0.00,0.00,0.00
2014-09-01 14:00:00,1,49722,0,0.00,0,2,1,2,48488,50000,558,50000,0,0,0,0,0.00,0.00,0.00,0.00
2014-09-01 14:10:00,0,49166,0,0.00,0,0,0,0,45378,50000,1681,50000,0,0,0,0,0.00,0.00,0.00,0.00
2014-09-01 14:20:00,0,49110,0,0.00,0,0,0,0,46831,50000,1249,50000,0,0,0,0,0.00,0.00,0.00,0.00
2014-09-01 14:30:00,0,49888,20,0.04,0,0,0,0,48882,50000,335,50000,0,41,20,20,0.00,0.15,0.05,0.00
2014-09-01 14:40:00,1,50000,33,0.02,0,2,1,0,50000,50000,0,50000,0,41,16,41,0.00,0.05,0.02,0.00
2014-09-01 14:50:00,2,50000,0,0.00,2,2,0,2,50000,50000,0,50000,0,0,0,0,0.00,0.00,0.00,0.00
2014-09-01 15:00:00,2,49180,0,0.00,2,2,0,2,45919,50000,1373,50000,0,0,0,0,0.00,0.00,0.00,0.00
2014-09-01 15:10:00,2,49886,0,0.00,2,2,0,2,48871,50000,338,50000,0,0,0,0,0.00,0.00,0.00,0.00
2014-09-01 15:20:00,2,49992,0,0.00,2,2,0,2,49924,50000,23,50000,0,0,0,0,0.00,0.00,0.00,0.00
2014-09-01 15:30:00,2,50000,0,0.00,2,2,0,2,50000,50000,0,50000,0,0,0,0,0.00,0.00,0.00,0.00
2014-09-01 15:40:00,2,49752,0,0.00,2,2,0,2,48182,50000,559,50000,0,0,0,0,0.00,0.00,0.00,0.00
2014-09-01 15:50:00,2,50000,0,0.00,2,2,0,2,50000,50000,0,50000,0,0,0,0,0.00,0.00,0.00,0.00
2014-09-01 16:00:00,2,49720,0,0.00,2,2,0,2,47960,50000,629,50000,0,0,0,0,0.00,0.00,0.00,0.00
2014-09-01 16:10:00,2,49771,0,0.00,2,2,0,2,48634,50000,452,50000,0,0,0,0,0.00,0.00,0.00,0.00
2014-09-01 16:20:00,2,50000,0,0.00,2,2,0,2,50000,50000,0,50000,0,0,0,0,0.00,0.00,0.00,0.00
2014-09-01 16:30:00,2,49980,0,0.00,2,2,0,2,49795,50000,62,50000,0,0,0,0,0.00,0.00,0.00,0.00
2014-09-01 16:40:00,2,49359,0,0.00,2,2,0,2,44695,50000,1589,50000,0,0,0,0,0.00,0.00,0.00,0.00
2014-09-01 16:50:00,2,50000,0,0.00,2,2,0,2,50000,50000,0,50000,0,0,0,0,0.00,0.00,0.00,0.00
2014-09-01 17:00:00,2,49734,0,0.00,2,2,0,2,47340,50000,798,50000,0,0,0,0,0.00,0.00,0.00,0.00
2014-09-01 17:10:00,2,48310,0,0.00,2,2,0,2,43851,50000,2154,49196,0,0,0,0,0.00,0.00,0.00,0.00
2014-09-01 17:20:00,2,49587,0,0.00,2,2,0,2,47595,50000,839,50000,0,0,0,0,0.00,0.00,0.00,0.00
2014-09-01 17:30:00,2,49258,0,0.00,2,2,0,2,46489,50000,1191,50000,0,0,0,0,0.00,0.00,0.00,0.00
2014-09-01 17:40:00,2,48712,0,0.00,2,2,0,2,45226,50000,1591,49182,0,0,0,0,0.00,0.00,0.00,0.00
2014-09-01 17:50:00,2,47275,0,0.00,2,2,0,2,37730,50000,3733,48626,0,0,0,0,0.00,0.00,0.00,0.00
2014-09-01 18:00:00,2,49438,0,0.00,2,2,0,2,44385,50000,1684,50000,0,0,0,0,0.00,0.00,0.00,0.00
2014-09-01 18:10:00,2,47786,0,0.00,2,2,0,2,44839,50000,1944,48222,0,0,0,0,0.00,0.00,0.00,0.00
2014-09-01 18:20:00,2,49578,0,0.00,2,2,0,2,47663,50000,751,50000,0,0,0,0,0.00,0.00,0.00,0.00
2014-09-01 18:30:00,2,50000,0,0.00,2,2,0,2,50000,50000,0,50000,0,0,0,0,0.00,0.00,0.00,0.00
2014-09-01 18:40:00,2,50000,0,0.00,2,2,0,2,50000,50000,0,50000,0,0,0,0,0.00,0.00,0.00,0.00
2014-09-01 18:50:00,2,50000,0,0.00,2,2,0,2,50000,50000,0,50000,0,0,0,0,0.00,0.00,0.00,0.00
2014-09-01 19:00:00,2,49882,0,0.00,2,2,0,2,49318,50000,239,50000,0,0,0,0,0.00,0.00,0.00,0.00
2014-09-01 19:10:00,2,50000,0,0.00,2,2,0,2,50000,50000,0,50000,0,0,0,0,0.00,0.00,0.00,0.00
2014-09-01 19:20:00,2,50000,0,0.00,2,2,0,2,50000,50000,0,50000,0,0,0,0,0.00,0.00,0.00,0.00
2014-09-01 19:30:00,2,50000,0,0.00,2,2,0,2,50000,50000,0,50000,0,0,0,0,0.00,0.00,0.00,0.00
2014-09-01 19:40:00,2,50000,0,0.00,2,2,0,2,50000,50000,0,50000,0,0,0,0,0.00,0.00,0.00,0.00
2014-09-01 19:50:00,2,49723,0,0.00,2,2,0,2,47232,50000,830,50000,0,0,0,0,0.00,0.00,0.00,0.00
2014-09-01 20:00:00,2,49966,0,0.00,2,2,0,2,49658,50000,103,50000,0,0,0,0,0.00,0.00,0.00,0.00
2014-09-01 20:10:00,1,49707,0,0.00,0,2,1,0,47492,50000,749,50000,0,0,0,0,0.00,0.00,0.00,0.00
2014-09-01 20:20:00,0,50000,0,0.00,0,0,0,0,50000,50000,0,50000,0,0,0,0,0.00,0.00,0.00,0.00
2014-09-01 20:30:00,0,49902,0,0.00,0,0,0,0,49017,50000,295,50000,0,0,0,0,0.00,0.00,0.00,0.00
2014-09-01 20:40:00,0,49767,0,0.00,0,0,0,0,48432,50000,499,50000,0,0,0,0,0.00,0.00,0.00,0.00
2014-09-01 20:50:00,0,49968,0,0.00,0,0,0,0,49675,50000,98,50000,0,0,0,0,0.00,0.00,0.00,0.00
2014-09-01 21:00:00,0,50000,0,0.00,0,0,0,0,50000,50000,0,50000,0,0,0,0,0.00,0.00,0.00,0.00
2014-09-01 21:10:00,0,49709,0,0.00,0,0,0,0,47089,50000,873,50000,0,0,0,0,0.00,0.00,0.00,0.00
2014-09-01 21:20:00,0,50000,0,0.00,0,0,0,0,50000,50000,0,50000,0,0,0,0,0.00,0.00,0.00,0.00
2014-09-01 21:30:00,1,50000,0,0.00,0,2,1,2,50000,50000,0,50000,0,0,0,0,0.00,0.00,0.00,0.00
2014-09-01 21:40:00,2,50000,0,0.00,2,2,0,2,50000,50000,0,50000,0,0,0,0,0.00,0.00,0.00,0.00
2014-09-01 21:50:00,2,48182,0,0.00,2,2,0,2,41986,50000,2321,49019,0,0,0,0,0.00,0.00,0.00,0.00
2014-09-01 22:00:00,2,49307,8,0.14,2,2,0,2,45665,50000,1385,50000,0,40,16,0,0.00,1.00,0.31,0.00
2014-09-01 22:10:00,2,49118,59,0.90,2,2,0,2,44631,50000,1774,50000,52,61,4,61,0.20,2.15,0.66,0.83
2014-09-01 22:20:00,2,45367,58,1.47,2,2,0,2,40382,50000,2728,44697,52,61,4,61,0.45,3.05,0.74,1.50
2014-09-01 22:30:00,2,46675,60,1.27,2,2,0,2,34941,50000,4679,48953,52,61,3,61,0.45,2.15,0.55,1.33
2014-09-01 22:40:00,2,45003,56,0.53,2,2,0,2,33943,50000,5124,46858,51,61,5,56,0.05,1.70,0.52,0.30
2014-09-01 22:50:00,2,28116,63,0.30,2,2,0,2,10973,42687,9831,29564,51,71,9,71,0.00,1.35,0.41,0.10
2014-09-01 23:00:00,2,34585,57,2.08,2,2,0,2,24045,45214,6678,35367,52,61,4,61,0.40,3.75,1.03,2.27
2014-09-01 23:10:00,2,28368,61,2.74,2,2,0,2,22159,32788,3663,29585,61,61,0,61,0.75,4.45,1.31,2.78
2014-09-01 23:20:00,2,25932,57,1.94,2,2,0,2,22872,29914,1998,25316,52,61,4,61,1.35,3.05,0.55,1.78
2014-09-01 23:30:00,2,29189,61,2.36,2,2,0,2,21790,34032,3942,28674,61,61,0,61,1.05,3.60,0.71,2.17
2014-09-01 23:40:00,2,45880,57,0.60,2,2,0,2,38702,50000,4001,47228,51,61,5,61,0.15,1.25,0.32,0.55
2014-09-01 23:50:00,2,48662,56,0.54,2,2,0,2,45174,50000,1727,50000,51,61,5,56,0.15,1.55,0.50,0.25
